Temperature
33 33 33 33 34 34 34 33 33 34 35 34 33 33 33 33 32 31 30 29 28 28 27 26 25 24 23 22 22 21 21 21 21 20 20 20 20 20 20 20 19 19 19 19
33 33 34 35 35 35 34 33 33 34 35 34 33 33 33 33 33 32 31 30 29 28 27 26 25 24 23 22 22 21 21 21 21 21 21 20 20 20 20 20 19 19 19 19
32 34 35 35 34 34 34 34 34 33 34 34 33 32 33 33 33 32 31 30 29 28 27 26 25 24 24 23 22 22 21 21 21 21 21 20 20 20 20 19 19 19 19 19
33 34 34 34 34 34 33 35 35 34 33 33 33 31 31 32 32 32 31 31 30 28 27 26 25 25 24 23 22 22 22 21 21 21 20 20 20 20 20 19 19 19 19 19
33 34 34 33 34 35 34 35 34 34 33 33 33 32 31 32 32 32 32 31 30 29 28 27 26 25 24 23 22 22 22 21 21 21 20 20 20 20 20 19 19 19 19 19
34 35 35 34 35 35 35 34 33 33 32 31 32 32 31 32 32 32 32 31 31 30 29 27 26 25 24 23 22 22 21 21 21 21 20 20 20 20 20 19 19 19 19 19
33 34 35 35 34 34 34 32 31 30 30 31 33 32 32 33 33 32 32 32 31 30 29 27 26 25 24 23 22 22 21 21 21 20 20 20 20 19 19 19 19 19 19 19
32 32 34 35 34 33 33 32 30 30 30 31 32 31 32 33 33 33 32 32 31 30 29 27 26 25 24 23 22 22 21 20 20 20 20 20 20 19 19 19 19 19 19 19
32 32 35 35 35 34 33 33 34 32 32 31 31 31 32 32 32 32 32 31 30 29 28 27 26 25 24 23 22 22 21 20 20 20 20 20 20 19 19 19 19 19 18 18
33 32 33 35 35 35 34 34 33 32 30 30 30 31 30 31 31 31 31 31 30 29 28 27 26 25 24 23 22 22 21 20 20 20 19 19 19 19 19 19 19 18 18 18
33 32 33 34 33 33 34 33 32 32 32 31 30 30 32 31 31 31 31 31 30 29 28 26 26 25 24 23 22 21 21 20 20 20 19 19 19 19 19 18 18 18 18 18
33 32 31 33 34 35 34 33 33 31 30 31 31 30 33 32 31 31 31 29 28 28 27 26 25 24 24 23 22 21 21 20 20 19 19 19 19 19 18 18 18 18 18 17
32 31 30 31 32 33 33 33 33 33 32 31 30 31 32 32 31 31 30 29 27 27 26 25 24 24 23 22 22 21 20 20 19 19 19 18 18 18 18 18 18 18 17 17
31 31 30 29 30 31 32 32 33 32 31 31 31 31 31 31 30 30 29 28 27 26 25 24 24 23 22 22 21 21 20 20 19 19 18 18 18 18 18 18 17 18 17 17
31 30 30 31 32 32 32 32 32 32 31 31 31 31 31 30 30 29 28 27 26 25 25 24 23 22 22 21 21 20 20 19 19 18 18 18 18 17 17 17 17 17 17 17
30 29 29 29 31 32 32 32 32 32 32 32 31 31 30 30 29 28 28 27 26 25 24 23 23 22 21 21 20 20 19 19 18 18 18 17 17 17 17 17 17 17 17 16
30 28 28 28 30 30 30 31 31 31 31 31 30 30 30 29 28 27 27 26 25 24 24 23 22 21 21 20 20 19 19 18 18 18 17 17 17 17 17 16 16 16 16 16
29 28 28 28 28 27 30 31 31 31 31 31 30 29 29 28 27 27 26 25 25 24 23 22 22 21 21 20 20 19 18 18 18 17 17 17 16 16 16 16 16 16 16 16
29 28 27 27 27 28 29 30 30 30 29 30 29 29 28 27 27 26 25 24 24 23 22 22 22 21 20 20 19 19 18 18 17 17 17 17 16 16 16 16 16 16 15 15
29 28 27 27 26 26 27 29 29 29 27 28 28 28 27 27 26 25 24 23 23 22 21 21 21 21 20 19 19 18 18 18 17 17 16 16 16 16 16 15 15 15 15 15
27 26 26 26 26 26 27 28 28 26 25 27 27 26 26 25 24 23 22 22 21 21 21 20 20 20 19 19 18 18 17 17 17 16 16 16 16 15 15 15 15 15 15 15
26 26 25 26 25 24 26 27 25 24 25 25 25 25 24 23 22 22 21 21 21 20 20 19 19 18 18 18 17 17 17 16 16 16 16 16 15 15 15 15 15 15 15 14
26 25 26 25 24 24 24 24 24 24 24 24 23 23 22 22 22 21 20 20 20 19 19 19 18 18 17 17 17 16 16 16 16 16 15 15 15 15 15 15 15 15 14 14
25 26 25 24 24 24 24 24 23 23 23 23 22 22 22 21 21 20 20 19 19 18 18 18 17 17 16 16 16 16 16 15 15 15 15 15 15 15 15 14 14 14 14 14
24 24 24 23 23 23 23 23 22 22 22 22 21 21 21 21 20 20 19 19 18 18 17 17 17 16 16 16 16 15 15 15 15 15 15 14 14 14 14 14 14 14 14 14
24 23 23 22 22 22 22 22 22 21 21 21 21 20 20 20 19 19 18 18 17 17 17 16 16 16 15 15 15 15 15 15 14 14 14 14 14 14 14 14 14 14 14 13
Wind_Speed
13 12 12 10 11 11 9 8 6 4 5 4 4 5 9 9 9 10 11 11 10 10 9 9 10 11 11 10 9 8 6 6 4 3 2 2 2 2 2 3 4 4 2 1
14 15 14 11 11 11 12 10 8 5 3 3 4 5 7 8 8 9 10 11 11 11 10 9 10 10 11 11 9 9 7 6 5 4 3 3 2 2 3 1 3 3 2 0
15 12 10 10 12 11 11 10 9 6 5 6 5 5 5 7 8 9 10 12 11 11 12 11 11 10 10 11 11 9 8 7 5 4 3 2 2 1 1 2 2 2 2 1
14 13 10 12 13 13 11 9 9 9 8 7 7 5 5 7 8 9 9 10 12 12 13 13 12 11 10 10 10 9 8 7 5 4 3 3 3 2 2 2 2 2 2 1
14 13 13 14 13 12 9 8 10 11 10 9 9 6 5 8 9 9 8 8 10 12 13 13 13 11 10 10 10 9 8 7 6 5 4 3 2 2 2 2 2 2 2 2
17 13 13 13 12 11 9 9 10 11 10 11 10 8 5 6 6 7 8 10 10 11 12 13 12 11 10 9 9 9 8 7 6 5 4 4 3 2 2 2 1 2 2 2
16 16 14 11 12 11 8 9 7 8 9 10 7 6 3 5 6 7 7 8 10 10 11 12 12 12 10 10 10 9 9 7 6 5 4 4 3 3 3 2 2 2 2 1
14 13 13 12 13 11 10 10 9 9 9 8 5 5 2 4 4 6 6 7 9 9 9 11 10 11 10 10 10 10 10 8 7 6 4 3 3 3 2 2 2 2 1 0
11 12 12 12 13 13 12 12 12 11 13 10 5 3 2 3 4 3 4 6 8 8 8 9 10 11 11 10 10 10 10 8 7 7 5 4 3 2 2 1 1 1 1 1
14 12 12 12 11 14 13 12 9 10 8 10 8 5 3 4 4 3 3 5 8 8 6 7 9 10 10 10 9 9 9 7 6 6 6 5 4 3 2 2 2 1 1 1
15 14 14 11 12 12 12 12 10 9 10 9 8 4 3 4 5 5 4 5 7 8 9 6 5 7 9 9 9 9 8 8 7 6 5 4 4 3 3 2 2 1 1 1
12 13 13 14 11 12 12 12 12 10 9 10 10 4 1 3 3 3 5 6 7 6 7 7 6 6 6 7 8 7 7 7 6 5 4 3 3 3 3 3 2 2 2 2
7 9 12 14 11 11 12 12 13 13 11 10 11 3 3 3 3 4 7 7 6 5 6 6 6 6 6 6 6 6 5 6 6 5 5 4 4 3 3 3 3 2 2 3
6 11 13 14 11 10 12 13 13 12 12 12 10 5 3 2 2 4 6 7 7 6 6 5 6 6 5 5 5 5 4 4 5 5 5 4 3 3 3 2 2 2 3 3
8 13 13 15 16 16 14 13 13 14 14 13 10 6 2 2 3 4 5 6 7 6 5 5 5 5 5 5 4 3 3 4 4 4 4 3 3 2 2 2 2 2 3 3
9 11 13 15 17 18 17 14 13 13 13 12 10 4 2 4 4 4 4 4 5 5 5 5 4 4 4 4 3 3 3 3 4 4 3 3 2 2 1 2 2 2 2 3
10 10 12 14 15 16 17 14 12 10 8 9 7 2 2 4 3 3 3 3 4 4 4 3 3 3 2 3 4 3 3 3 4 4 3 3 2 2 2 3 2 2 2 2
10 8 8 13 14 17 11 8 8 7 6 3 2 2 3 3 3 4 4 4 3 2 2 3 2 1 1 2 4 3 3 3 3 3 3 3 2 2 2 2 2 2 2 3
10 8 9 11 13 14 9 7 7 7 5 4 2 1 1 3 3 4 5 4 4 2 3 2 1 2 2 2 3 3 3 3 3 2 2 1 2 2 2 3 3 3 3 3
11 8 9 11 13 13 7 7 9 7 5 3 3 1 1 1 1 2 5 5 4 4 5 4 2 2 3 3 2 3 3 2 2 1 1 1 2 2 3 3 3 3 3 4
10 10 12 13 13 8 6 8 8 6 3 5 3 2 2 3 4 5 6 5 5 4 4 4 4 3 4 3 2 1 1 1 1 1 2 2 2 3 3 2 2 3 3 4
9 9 9 9 11 6 8 6 4 3 5 6 6 5 6 6 7 6 5 4 4 3 4 4 4 3 3 2 2 1 1 1 1 1 1 2 2 3 2 2 2 3 3 4
6 5 5 5 3 2 5 5 5 5 5 5 5 4 4 4 4 4 3 3 3 3 3 3 3 3 3 2 2 1 2 1 1 1 2 2 2 2 2 3 3 3 3 4
4 3 5 4 1 2 3 4 5 5 4 4 4 3 2 1 2 2 2 2 2 2 2 2 2 2 2 2 2 2 2 1 1 2 2 2 2 3 3 3 2 2 2 3
5 4 4 4 2 3 3 3 4 4 4 4 3 2 2 1 1 1 1 1 1 1 2 2 1 1 1 1 2 1 2 1 2 2 2 3 3 3 2 2 2 2 2 2
5 3 3 3 2 3 3 2 3 2 2 3 2 3 3 2 1 0 0 1 1 1 2 2 2 2 2 2 1 2 2 2 2 2 3 3 3 2 1 1 2 3 2 2
Wind_Direction
241 243 251 252 249 266 267 268 279 237 213 208 198 180 172 172 171 169 164 164 167 168 162 158 160 158 152 147 148 151 153 150 154 153 159 160 164 159 135 139 129 133 130 162
247 243 251 260 266 261 267 268 262 258 244 231 224 204 176 177 185 173 173 170 171 168 162 163 166 163 157 155 155 154 155 156 165 171 175 171 170 164 144 137 129 132 121 64
245 252 264 269 270 269 266 268 267 265 273 256 245 244 197 191 185 175 182 174 171 174 170 168 169 169 164 161 162 165 162 159 168 170 175 163 149 176 133 140 139 137 136 149
254 260 266 266 262 266 266 270 272 268 262 260 246 249 212 202 191 180 186 176 172 174 170 169 172 173 170 163 160 156 155 155 159 162 169 178 173 174 166 161 147 158 178 207
249 249 255 259 262 269 274 289 285 284 275 265 252 246 223 202 194 183 186 177 173 169 170 169 173 171 168 161 159 154 153 155 159 169 168 179 188 165 147 156 167 188 206 225
257 251 251 257 264 271 277 282 278 276 272 257 252 253 228 198 180 174 181 177 170 163 164 164 165 158 160 157 155 152 152 157 162 174 180 181 186 179 178 189 188 221 223 222
250 247 242 247 253 250 247 264 269 263 252 251 251 251 219 164 164 168 192 177 164 161 159 158 160 157 161 161 159 157 156 161 164 172 184 187 191 191 187 203 207 245 244 181
241 245 236 235 243 252 242 239 249 266 270 270 237 229 196 140 136 148 168 168 161 158 157 154 156 154 159 163 162 161 159 164 166 171 180 184 197 204 193 204 224 250 289 41
255 252 248 235 238 244 250 249 255 263 270 278 263 221 145 116 112 137 161 155 141 148 153 153 159 160 160 166 167 164 159 164 171 174 174 177 189 211 221 209 222 230 282 257
260 268 257 237 233 235 246 262 267 263 271 276 267 237 191 157 151 178 175 150 134 135 135 151 158 160 161 164 161 156 154 162 169 170 183 184 189 196 215 206 221 224 207 324
255 264 267 250 230 242 238 245 258 272 278 282 281 284 167 173 164 172 176 125 124 132 133 138 146 144 155 155 154 157 158 165 170 175 180 187 183 192 202 203 207 240 265 285
247 258 264 263 253 244 249 250 252 254 259 269 276 273 135 133 144 136 112 99 99 103 120 127 123 120 130 138 145 149 160 168 170 174 178 190 189 192 200 213 212 220 259 266
269 257 259 260 252 243 247 252 260 266 262 260 263 246 106 99 121 128 114 107 106 104 106 118 121 118 114 115 126 142 158 167 175 176 183 193 200 198 206 221 217 213 231 250
280 261 258 262 265 265 255 252 255 263 266 262 260 255 181 135 117 105 107 112 114 107 103 102 109 106 106 110 119 133 152 158 170 179 185 188 199 201 209 220 227 223 227 232
258 262 263 269 275 272 266 260 253 252 260 267 276 270 278 109 103 99 102 111 113 107 101 96 92 98 114 115 123 130 145 152 162 168 179 186 192 191 208 225 243 246 251 248
254 269 276 269 269 272 272 266 260 260 266 270 274 273 60 82 81 88 98 100 114 114 106 99 98 99 118 128 136 145 160 157 156 162 165 159 172 185 202 232 240 250 260 276
253 255 269 271 274 276 267 269 272 270 268 273 271 273 92 96 93 115 122 111 86 92 92 98 107 105 110 140 146 162 165 158 162 163 163 160 180 198 225 249 235 252 266 278
251 255 258 264 269 263 271 295 290 289 292 305 358 58 65 69 93 95 84 78 74 66 93 99 111 103 131 144 148 159 166 164 169 172 183 180 197 212 232 255 251 253 262 262
260 249 255 262 261 261 264 295 298 289 289 322 323 63 90 105 101 85 66 73 69 57 77 95 134 137 114 120 130 145 162 165 181 191 194 195 218 231 243 255 262 264 261 262
248 238 242 254 261 265 285 306 305 288 260 353 357 20 14 84 204 107 77 68 60 56 57 53 49 67 89 84 108 156 163 160 180 216 246 238 238 246 254 260 258 264 267 263
238 237 242 252 259 262 303 314 307 273 319 352 1 53 65 62 58 83 76 64 56 57 64 55 50 58 65 65 84 115 141 181 196 220 238 247 253 253 247 255 255 255 262 268
242 241 245 255 261 263 343 331 344 4 8 6 14 38 65 77 85 86 75 58 51 49 57 58 56 54 50 48 47 27 19 352 350 301 280 281 282 282 275 258 256 249 249 259
260 273 269 260 266 26 12 14 26 27 23 19 29 35 56 70 80 86 82 65 47 37 43 55 64 54 36 22 30 7 13 19 358 298 287 288 280 273 274 258 257 259 248 261
254 279 282 293 301 357 351 12 20 19 19 27 44 26 20 71 84 83 87 77 38 15 39 48 52 47 22 358 4 24 6 355 306 279 273 265 259 260 256 262 269 274 278 283
299 282 266 263 301 350 9 358 355 356 11 32 33 15 12 19 62 66 76 82 48 17 29 25 34 19 343 2 12 8 354 328 291 282 274 268 267 268 257 278 301 283 289 268
296 301 279 278 332 312 300 329 329 340 358 358 6 19 22 24 25 26 3 51 22 12 6 357 12 360 338 332 342 339 329 313 284 277 283 284 277 276 269 261 325 341 266 227
Height
1480 1481 1481 1476 1472 1471 1472 1475 1475 1470 1463 1465 1472 1473 1473 1475 1478 1482 1486 1491 1495 1499 1503 1505 1508 1510 1512 1514 1515 1517 1519 1520 1522 1523 1524 1525 1526 1528 1529 1529 1530 1530 1530 1530
1478 1479 1471 1467 1466 1466 1470 1475 1474 1468 1460 1464 1469 1471 1469 1473 1475 1478 1483 1487 1492 1496 1500 1503 1506 1508 1510 1512 1514 1516 1517 1519 1520 1522 1524 1525 1526 1528 1528 1529 1529 1529 1529 1530
1478 1472 1466 1467 1468 1468 1469 1472 1470 1471 1465 1463 1470 1477 1471 1470 1471 1476 1480 1483 1487 1492 1496 1500 1503 1506 1508 1510 1512 1514 1515 1517 1519 1521 1523 1525 1526 1527 1528 1528 1528 1529 1529 1529
1471 1466 1467 1468 1469 1467 1472 1462 1462 1465 1471 1475 1473 1492 1478 1470 1472 1473 1476 1479 1483 1488 1492 1496 1500 1504 1506 1508 1510 1512 1514 1516 1518 1520 1521 1522 1524 1525 1526 1527 1527 1528 1528 1528
1470 1466 1466 1469 1465 1462 1464 1461 1463 1465 1469 1475 1471 1483 1480 1469 1472 1472 1473 1476 1480 1484 1488 1493 1497 1501 1504 1507 1509 1511 1513 1515 1516 1518 1519 1521 1522 1523 1525 1526 1526 1527 1527 1527
1464 1461 1461 1462 1459 1459 1460 1464 1465 1467 1474 1488 1475 1480 1485 1469 1468 1469 1471 1474 1477 1481 1485 1490 1494 1498 1501 1504 1507 1509 1511 1513 1515 1516 1518 1519 1520 1521 1523 1524 1524 1525 1525 1525
1467 1460 1457 1458 1462 1460 1463 1477 1492 1497 1497 1489 1468 1475 1476 1461 1461 1465 1468 1471 1475 1479 1483 1488 1492 1496 1500 1502 1505 1507 1509 1511 1512 1514 1516 1517 1518 1520 1521 1521 1522 1523 1524 1524
1474 1472 1456 1455 1459 1463 1463 1473 1494 1505 1500 1485 1470 1477 1468 1458 1461 1464 1466 1469 1472 1477 1481 1486 1491 1494 1497 1500 1503 1506 1507 1509 1511 1512 1514 1515 1517 1518 1519 1520 1520 1521 1522 1522
1468 1469 1451 1450 1452 1456 1464 1465 1461 1475 1479 1486 1480 1471 1464 1460 1462 1464 1465 1468 1471 1476 1480 1485 1489 1492 1495 1499 1501 1503 1505 1507 1509 1511 1512 1513 1514 1516 1517 1518 1518 1519 1519 1520
1458 1467 1455 1449 1450 1451 1454 1457 1463 1474 1491 1497 1486 1479 1477 1468 1467 1467 1467 1468 1471 1476 1481 1485 1488 1491 1494 1496 1499 1502 1504 1506 1508 1509 1510 1512 1512 1513 1514 1515 1516 1516 1517 1517
1454 1464 1460 1451 1456 1458 1456 1460 1463 1467 1471 1487 1495 1486 1459 1462 1463 1464 1467 1469 1472 1476 1481 1485 1488 1490 1493 1495 1498 1500 1502 1504 1506 1507 1508 1510 1510 1510 1511 1512 1513 1514 1514 1515
1453 1459 1465 1456 1446 1447 1450 1456 1460 1475 1479 1475 1482 1481 1453 1457 1461 1465 1467 1470 1474 1478 1480 1483 1487 1490 1492 1494 1497 1499 1501 1502 1503 1505 1506 1507 1508 1508 1509 1509 1510 1511 1512 1512
1456 1463 1476 1471 1461 1452 1452 1452 1453 1455 1463 1472 1480 1477 1455 1458 1461 1465 1469 1473 1476 1479 1480 1483 1486 1489 1491 1493 1496 1498 1500 1501 1502 1503 1504 1505 1505 1505 1506 1506 1507 1508 1508 1509
1459 1462 1471 1479 1469 1459 1457 1454 1452 1458 1468 1470 1468 1466 1459 1460 1462 1466 1470 1474 1477 1480 1482 1484 1486 1488 1491 1493 1495 1497 1499 1500 1500 1501 1502 1502 1503 1503 1504 1504 1504 1504 1505 1505
1458 1464 1462 1459 1454 1452 1453 1452 1451 1456 1458 1463 1460 1459 1459 1458 1463 1466 1471 1475 1478 1481 1483 1485 1487 1489 1491 1493 1494 1496 1497 1498 1499 1499 1500 1500 1501 1501 1501 1501 1502 1502 1502 1502
1459 1465 1464 1465 1456 1452 1452 1449 1449 1451 1451 1453 1456 1460 1457 1461 1465 1469 1473 1476 1479 1481 1484 1486 1488 1489 1490 1492 1493 1494 1495 1496 1496 1497 1497 1498 1499 1499 1499 1499 1499 1499 1499 1499
1460 1466 1472 1471 1459 1457 1461 1450 1448 1449 1448 1453 1460 1460 1459 1463 1467 1471 1474 1477 1479 1482 1484 1486 1487 1488 1489 1491 1491 1492 1493 1494 1494 1495 1495 1496 1496 1496 1497 1497 1497 1496 1496 1496
1461 1465 1469 1471 1471 1483 1459 1444 1445 1449 1449 1450 1454 1457 1461 1466 1469 1472 1475 1477 1480 1482 1484 1486 1487 1488 1489 1490 1490 1491 1491 1492 1493 1493 1494 1494 1494 1494 1495 1495 1494 1494 1494 1494
1455 1461 1469 1472 1474 1469 1455 1450 1449 1453 1456 1453 1455 1459 1463 1466 1470 1474 1477 1479 1482 1483 1484 1486 1487 1487 1488 1489 1489 1490 1490 1491 1492 1492 1492 1492 1492 1492 1492 1492 1491 1491 1491 1491
1454 1457 1467 1470 1478 1479 1465 1453 1451 1454 1462 1458 1459 1461 1464 1466 1471 1476 1479 1481 1483 1484 1485 1485 1486 1487 1487 1488 1488 1489 1489 1489 1490 1490 1490 1490 1490 1489 1489 1489 1489 1489 1488 1488
1461 1463 1466 1469 1473 1468 1461 1456 1454 1468 1472 1463 1463 1464 1467 1469 1474 1478 1480 1482 1483 1484 1485 1485 1486 1486 1487 1487 1487 1488 1488 1488 1488 1488 1488 1488 1488 1487 1487 1487 1486 1486 1486 1486
1461 1465 1467 1468 1475 1477 1463 1460 1464 1469 1467 1467 1467 1468 1469 1472 1475 1478 1481 1482 1484 1484 1485 1485 1486 1486 1486 1486 1486 1486 1486 1486 1486 1486 1486 1486 1485 1485 1485 1484 1484 1483 1483 1483
1457 1460 1461 1465 1471 1468 1467 1467 1468 1468 1468 1469 1470 1472 1473 1474 1477 1479 1481 1483 1484 1485 1485 1485 1485 1485 1485 1485 1485 1485 1485 1485 1484 1484 1484 1483 1483 1483 1482 1482 1481 1481 1481 1481
1457 1458 1460 1464 1464 1466 1468 1469 1470 1471 1471 1471 1472 1474 1475 1476 1478 1479 1481 1482 1484 1484 1484 1484 1484 1484 1484 1484 1484 1484 1483 1483 1483 1482 1481 1481 1480 1480 1480 1479 1479 1479 1478 1478
1461 1460 1462 1465 1466 1468 1469 1471 1472 1472 1472 1473 1474 1475 1475 1476 1478 1479 1480 1481 1482 1483 1483 1483 1483 1483 1483 1483 1482 1482 1481 1481 1480 1479 1479 1479 1478 1478 1477 1477 1476 1476 1475 1475
1462 1463 1465 1467 1469 1470 1471 1472 1473 1473 1473 1474 1475 1475 1475 1476 1477 1479 1479 1480 1481 1481 1482 1482 1481 1481 1481 1481 1480 1479 1479 1478 1478 1477 1477 1476 1476 1475 1475 1474 1473 1473 1473 1472